STARLINK-32886, 62807

Orbit data source: Space-Track

STARLINK-32886, 62807 is a payload satellite owned by SpaceX/Seattle (US) in LEO that was launched on Fri, 24 Jan 2025 UTC via an FALCON 9 launch vehicle from the Air Force Western Test Range (AFWTR). Payload-class satellites include a variety of spacecraft equipped with specific instruments for various scientific and technological missions. These include communications satellites like Starlink; space stations such as the ISS; scientific satellites like the Hubble; Earth observation satellites from companies like Planet Labs, Umbra, and HawkEye 360; GPS; miniature CubeSats for education and research; and military/defense satellites.

Loading next visibility...
Identifier
62807, 2025-018B
Orbit
LEO
Country
Flag of USUS
Related business
Manufacturer
SpaceX/Seattle
Mission
Operational Commercial Communications
Bus & Motor
STARLINK V2M, Unknown motor
Mass
730 kg wet, ~700 kg dry
Launch date (UTC)
2025-01-24 (1 year ago)
Launch vehicle
FALCON 9
Launch site
Air Force Western Test Range (AFWTR)
Object type
Payload
Rocket body
Debris
Shape & HBR
Box + 2 Pan, 17.7 m
Radar Cross Section
33.884 m², Large (>1 m²)

Expand to show TLE details & history
Last TLE update: 16 hours ago

TLE from 16 hours ago
0 STARLINK-32886
1 62807U 25018B   26121.16291380  .00025642  00000-0  87461-3 0  9999
2 62807  53.1627  65.7651 0001856  61.2214 298.8973 15.30210491 71218
Epoch: 2026-05-01T03:54Z
TLE epoch observation values (Epoch: 2026-05-01T03:54:35.752Z)
Latitude
-0.00002°
Longitude
148.017°
Altitude
475.469 km
Speed
7.63 km/s
True Right ascension
04h 23m 03s
True Declination
0° 00' 00"
Sunlit
Object was in daylight at epoch
Visualization orbit readout
Latitude
Unknown
Longitude
Unknown
Altitude
Unknown
Speed
Unknown
Apparent Right ascension
Unknown
Apparent Declination
Unknown
Sunlit
N/A
Visualization observer readout
Local Sidereal Time
03:51:03
Azimuth
Unknown
Elevation
Unknown
Doppler factor
Unknown
Orbital elements
Apogee altitude
476.712 km
Perigee altitude
474.168 km
Semi-major axis
6,853.577 km
Eccentricity
0.00019
Inclination
53.1627°
RAAN
65.7651°
Arg. of periapsis
61.2214°
True anomaly
298.87868°
Mean anomaly
298.8973°
Eccentric anomaly
298.88799°
Mean motion
3.82532 °/min
Orbital period
94.11 mins
BSTAR
0.00087461
Loading maneuver chart data...
Computing Atmospheric mass density...
Loading historical data...
Loading historical data...
Loading historical data...
Loading historical data...
Loading historical data...
Loading historical data...
Loading historical data...

Documentation

Showing up to 5 results
|